User: anonymous   Login
Location: Stull Observatory
(42.2506°N, 77.7903°W)
Time: 01:25:18
(UTC-04:00)
Language:

Abrixas rocket - Orbit

View from above orbital plane
View from above orbital plane
View from above satellite
View from above satellite

Ground track
Ground track

The orbit data is extracted from the following two-line orbital elements,

1 25723U 99022C   18174.58729854 +.00006486 +00000-0 +84947-4 0  9990
2 25723 048.4159 338.4884 0007502 023.5274 336.6015 15.59816062064059
Epoch (UTC): 23 June 2018 14:05:42
Eccentricity: 0.0007502
inclination: 48.4159°
perigee height: 383 km
apogee height: 393 km
right ascension of ascending node: 338.4884°
argument of perigee: 23.5274°
revolutions per day: 15.59816062
mean anomaly at epoch: 336.6015°
orbit number at epoch: 6405

The dashed part of the orbit path shows where the satellite is in the earth's shadow,  

DLR